Zurück zum Katalog

ARIANE 5 R/B

AktivHEO
NORAD 33156·ROCKET BODY·🇫🇷 France

Gestartet Jul 7, 2008 von Guiana Space Centre

Loading…

Nächste Überflüge (nächste 24 Stunden)

TLE

AktuellSource: Space-Track

Epoche: Sep 14, 2026, 04:13 UTC

1 33156U 08034D   26257.17618307  .00001020  00000-0  61360-3 0  9990
2 33156   1.9956  49.5547 7090551 202.2489  97.9249  2.50169563158199

Verfolge ARIANE 5 R/B in Echtzeit mit AllMySat

Download on the App Store